Home   Weather   Fort Myers   Past weeks

Flag for USA Past Weather in Fort Myers, Florida, USA — Yesterday and Last 2 Weeks

Now
86 °F

Passing clouds.


Feels Like: 93 °F
Forecast: 76 / 87 °F
Wind: 10 mph from Southwest

Location: Page Field

Current Time: Sep 29, 2016 at 4:29:51 PM

Latest Report: Sep 29, 2016 at 3:53 PM


Visibility: 10 mi

Pressure: 30.01 "Hg

Humidity: 65%

Dew Point: 73 °F

Location of Fort MyersLocation

Past Weather in Fort Myers — Graph

°F

Fort Myers Temperature Yesterday

Maximum temperature yesterday: 88 °F (at 1:53 PM)
Minimum temperature yesterday: 74 °F (at 1:53 AM)
Average temperature yesterday: 80 °F

High & Low Weather Summary for the Past Weeks

 TemperatureHumidityPressure
High93 °F (Sep 21, 4:53 PM)97% (Sep 18, 10:00 PM)30.07 "Hg (Sep 18, 10:00 PM)
Low73 °F (Sep 25, 5:53 AM)46% (Sep 21, 4:53 PM)29.90 "Hg (Sep 26, 5:53 PM)
Average81 °F80%29.99 "Hg
* Reported Sep 14 2:53 PM — Sep 29 2:53 PM, Fort Myers, Weather by CustomWeather, © 2016

Note: Actual official high and low records may vary slightly from our data, if they occured in-between our weather recording intervals... More about our weather records

Advertising

Fort Myers Weather History for the Previous 24 Hours

Scroll right to see more
 ConditionsComfort  
Time TempWeatherWind HumidityBarometerVisibility
2:53 PM
Thu, Sep 29
86 °FSunny.7 mph67%30.04 "Hg10 mi
2:02 PM80 °FThunderstorms. Partly sunny.7 mph85%30.04 "Hg9 mi
1:53 PM81 °FLight rain. Scattered clouds.7 mph82%30.05 "Hg8 mi
1:00 PM82 °FPartly sunny.No wind79%30.06 "Hg10 mi
11:53 AM86 °FPassing clouds.10 mph70%30.06 "Hg10 mi
10:53 AM84 °FThundershowers. Sunny.7 mph74%30.06 "Hg10 mi
9:53 AM79 °FLight rain. Broken clouds.7 mph88%30.07 "Hg7 mi
8:53 AM77 °FScattered clouds.3 mph90%30.05 "Hg10 mi
7:53 AM76 °FScattered clouds.6 mph94%30.03 "Hg10 mi
6:53 AM76 °FClear.No wind94%30.02 "Hg10 mi
5:53 AM76 °FPassing clouds.3 mph94%30.01 "Hg10 mi
4:53 AM74 °FClear.3 mph97%30.00 "Hg10 mi
3:53 AM75 °FClear.No wind90%30.00 "Hg10 mi
2:53 AM75 °FClear.No wind90%30.03 "Hg10 mi
1:53 AM75 °FClear.No wind90%30.04 "Hg10 mi
12:53 AM75 °FThundershowers. Clear.5 mph90%30.06 "Hg10 mi
11:53 PM
Wed, Sep 28
78 °FPassing clouds.No wind84%30.06 "Hg10 mi
10:53 PM77 °FClear.5 mph94%30.05 "Hg10 mi
9:53 PM79 °FClear.No wind84%30.04 "Hg10 mi
8:53 PM78 °FRain. Fog.3 mph90%30.03 "Hg4 mi
7:53 PM82 °FPassing clouds.7 mph77%30.01 "Hg10 mi
6:53 PM81 °FPassing clouds.5 mph74%30.00 "Hg10 mi
5:53 PM81 °FScattered clouds.13 mph72%30.00 "Hg10 mi
4:53 PM86 °FSunny.12 mph65%29.98 "Hg10 mi
Weather by CustomWeather, © 2016

See weather overviewHow to use our weather pages